FW5964 Weather Reports


time (UTC)temp
F
wind
direction
speed
knots
gust
knots
rain 1hr
in
rain 24hr
in
rain mn
in
humidity
%
barometer
mb
20260507180057 51 252 1.7 7.8 0.10 1.30 1.30 97 1011.4
20260507174556 52 229 1.7 6.1 0.11 1.29 1.29 97 1011.4
20260507173053 52 292 0.9 6.1 0.15 1.28 1.28 97 1011.9
20260507171556 52 221 1.7 6.1 0.15 1.24 1.24 97 1012.9
20260507164605 53 279 3.5 7.8 0.21 1.17 1.17 97 1012.2
20260507163106 53 274 1.7 8.7 0.19 1.13 1.13 97 1012.1
20260507161558 53 281 3.5 11.3 0.22 1.09 1.09 97 1012.4
20260507160054 53 257 1.7 7.8 0.26 1.03 1.03 97 1012.3
20260507154559 53 148 3.5 9.6 0.22 0.97 0.97 97 1012.1
20260507153049 53 243 3.5 8.7 0.20 0.94 0.94 97 1012.1
20260507151549 53 231 3.5 11.3 0.14 0.87 0.87 97 1012.4
20260507150056 53 246 3.5 12.2 0.04 0.77 0.77 96 1013.0
20260507144553 53 229 3.5 13.0 0.02 0.75 0.75 97 1012.4
20260507143100 54 195 4.3 11.3 0.01 0.74 0.74 96 1012.4
20260507141551 55 229 4.3 11.3 0.00 0.73 0.73 96 1012.0
20260507140055 58 201 4.3 9.6 0.01 0.73 0.73 97 1011.9
20260507134550 58 212 2.6 7.8 0.05 0.73 0.73 97 1011.7
20260507133054 57 240 5.2 11.3 0.05 0.73 0.73 96 1011.6
20260507131611 58 126 2.6 8.7 0.06 0.73 0.73 97 1011.6
20260507130056 58 255 3.5 9.6 0.10 0.72 0.72 97 1011.6
20260507124554 58 223 2.6 9.6 0.07 0.68 0.68 97 1012.1
20260507123054 58 222 3.5 9.6 0.09 0.68 0.68 97 1011.7
20260507121556 58 251 3.5 9.6 0.13 0.67 0.67 96 1011.8
20260507120050 58 257 2.6 7.0 0.10 0.62 0.62 96 1011.8
20260507114559 59 155 3.5 9.6 0.12 0.61 0.61 96 1011.7
20260507113100 60 211 4.3 10.4 0.13 0.58 0.58 95 1011.6
20260507111557 65 0 0.0 0.9 0.20 0.54 0.54 97 1011.2
20260507110059 65 0 0.0 1.7 0.38 0.52 0.52 97 1011.0
20260507104554 65 0 0.0 3.5 0.44 0.49 0.49 96 1010.9
20260507103053 65 0 0.0 2.6 0.40 0.45 0.45 96 1010.8
20260507101559 65 0 0.0 2.6 0.29 0.34 0.34 95 1010.6
20260507100057 66 0 0.0 0.9 0.13 0.14 0.14 94 1010.8
20260507094553 66 29 0.0 1.7 0.04 0.05 0.05 93 1010.1
20260507093055 66 0 0.0 3.5 0.04 0.05 0.05 92 1009.8
20260507091551 67 350 0.0 6.1 0.04 0.05 0.05 90 1010.1
20260507090056 68 30 0.9 7.8 0.00 0.01 0.01 87 1010.4
20260507084553 68 359 0.9 7.0 0.00 0.01 0.01 86 1010.2
20260507083102 68 49 0.0 2.6 0.00 0.01 0.01 86 1010.4
20260507081555 68 342 0.9 7.0 0.00 0.01 0.01 86 1010.6
20260507080116 68 19 0.0 5.2 0.00 0.01 0.01 86 1010.7
20260507074555 68 0 0.9 5.2 0.00 0.01 0.01 86 1010.9
20260507073053 67 11 0.0 5.2 0.00 0.01 0.01 87 1010.9
20260507071608 67 2 0.0 4.3 0.00 0.01 0.01 87 1010.7
20260507070052 67 23 0.0 3.5 0.01 0.01 0.01 87 1010.7
20260507064554 67 39 0.0 4.3 0.01 0.01 0.01 87 1010.5
20260507063056 67 0 0.0 2.6 0.01 0.01 0.01 86 1010.2
20260507061559 67 0 0.0 3.5 0.01 0.01 0.01 86 1010.9
20260507054554 68 0 0.0 3.5 0.00 0.00 0.00 84 1011.6
20260507053124 69 0 0.0 3.5 0.00 0.00 0.00 83 1011.8
20260507051606 69 0 0.0 3.5 0.00 0.00 0.00 81 1011.9
20260507050108 71 0 0.0 3.5 0.00 0.00 0.00 78 1011.8
20260507044610 71 68 0.0 3.5 0.00 0.00 0.00 76 1011.5
20260507043054 71 0 0.0 2.6 0.00 0.00 0.00 76 1011.5
20260507041555 71 0 0.9 5.2 0.00 0.00 0.00 76 1011.7
20260507040055 71 0 0.9 6.1 0.00 0.00 0.00 76 1011.6
20260507034552 71 0 0.0 0.9 0.00 0.00 0.00 77 1011.4
20260507033100 71 0 0.0 3.5 0.00 0.00 0.00 76 1011.4
20260507031556 71 0 0.0 0.9 0.00 0.00 0.00 76 1011.1
20260507030053 70 0 0.0 0.9 0.00 0.00 0.00 76 1011.7
20260507024604 71 0 0.0 1.7 0.00 0.00 0.00 76 1011.8
20260507023059 71 0 0.0 0.9 0.00 0.00 0.00 76 1012.0
20260507021552 71 336 0.0 0.9 0.00 0.00 0.00 75 1011.7
20260507020057 71 0 0.0 0.9 0.00 0.00 0.00 74 1011.8
20260507014614 72 0 0.0 1.7 0.00 0.00 0.00 73 1012.1
20260507013053 72 0 0.0 4.3 0.00 0.00 0.00 72 1011.8
20260507011558 73 0 0.0 2.6 0.00 0.00 0.00 71 1011.8
20260507010104 73 0 0.0 5.2 0.00 0.00 0.00 70 1012.0
20260507004611 73 4 0.0 1.7 0.00 0.00 0.00 69 1011.8
20260507003055 74 0 0.0 2.6 0.00 0.00 0.00 68 1011.7
20260507001555 74 0 0.0 2.6 0.00 0.00 0.00 67 1011.5
20260507000055 75 0 0.0 5.2 0.00 0.00 0.00 66 1011.3
20260506234553 76 30 0.0 10.4 0.00 0.00 0.00 65 1011.2
20260506233057 76 82 0.9 3.5 0.00 0.00 0.00 64 1011.1
20260506231603 77 0 0.9 5.2 0.00 0.00 0.00 63 1011.0
20260506230056 77 0 0.0 7.0 0.00 0.00 0.00 63 1010.8
20260506224602 77 74 1.7 6.1 0.00 0.00 0.00 62 1010.8
20260506223110 78 15 0.9 7.0 0.00 0.00 0.00 63 1011.0
20260506221558 78 32 0.0 4.3 0.00 0.00 0.00 63 1011.0
20260506220053 78 21 1.7 10.4 0.00 0.00 0.00 63 1011.0
20260506214603 78 51 1.7 12.2 0.00 0.00 0.00 63 1010.6
20260506213056 78 0 0.9 10.4 0.00 0.00 0.00 62 1010.6
20260506211604 78 20 2.6 7.8 0.00 0.00 0.00 63 1010.6
20260506210057 78 24 0.9 9.6 0.00 0.00 0.00 63 1010.6
20260506204556 78 359 1.7 6.1 0.00 0.00 0.00 63 1010.8
20260506203055 78 11 0.9 13.0 0.00 0.00 0.00 61 1011.0
20260506201551 78 339 1.7 9.6 0.00 0.00 0.00 64 1011.4
20260506200101 78 62 1.7 5.2 0.00 0.00 0.00 66 1011.6
20260506194602 78 53 2.6 5.2 0.00 0.00 0.00 66 1011.8
20260506193056 78 330 2.6 9.6 0.00 0.00 0.00 65 1012.2
20260506191605 78 10 0.9 10.4 0.00 0.00 0.00 67 1012.3
20260506190054 77 20 1.7 7.8 0.00 0.00 0.00 67 1012.3
20260506184554 76 91 1.7 12.2 0.00 0.00 0.00 67 1012.6
20260506183056 77 330 2.6 13.0 0.00 0.00 0.00 66 1012.6
20260506181559 76 108 1.7 8.7 0.00 0.00 0.00 67 1012.9